Regional Weather Roundup
Issued by NWS Cleveland, OH

Home | Current Version | Previous Version | Text Only | Print | Product List | Glossary Off
Versions: 1 2 3 4 5 6 7 8 9 10 11 12 13 14 15 16 17 18 19 20 21 22 23 24 25 26 27 28 29 30 31 32 33 34 35 36 37 38 39 40 41 42 43 44 45 46 47 48 49 50

000
ASUS41 KCLE 140210
RWRCLE
OHIO REGIONAL WEATHER ROUNDUP
NATIONAL WEATHER SERVICE CLEVELAND, OH
900 PM EST WED DEC 13 2017

NOTE: "FAIR" INDICATES FEW OR NO CLOUDS BELOW 12,000 FEET WITH NO
SIGNIFICANT WEATHER AND/OR OBSTRUCTIONS TO VISIBILITY.

OHZ001>008-015>018-024>027-034-035-043-044-140300-
   NORTHWEST OHIO

CITY           SKY/WX    TMP DP  RH WIND       PRES   REMARKS
DEFIANCE       LGT SNOW  32  30  92 W9        29.32S FOG     WCI  24
FINDLAY        LGT SNOW  34  29  82 SW18      29.32S WCI  23
TOLEDO EXPRESS LGT SNOW  25  25 100 E6        29.33F FOG     WCI  18
TOLEDO EXEC    LGT SNOW  26  23  88 SE12      29.34F FOG     WCI  16
LIMA           LGT SNOW  33  32  96 W17       29.34R FOG     WCI  22
$$

OHZ009>014-019>023-028>033-038-089-140300-
   NORTHEAST OHIO

CITY           SKY/WX    TMP DP  RH WIND       PRES   REMARKS
CLE-HOPKINS    LGT SNOW  22  18  85 SE13      29.42F FOG     WCI  10
CLE-LAKEFRONT  LGT SNOW  23  18  81 SE16G23   29.41F WCI  10
CUY CO. ARPT   LGT SNOW  23  18  80 S21       29.42F VSB 1   WCI   8
LORAIN-ELYRIA  LGT SNOW  22  15  75 S16       29.38F WCI   8
ASHTABULA      LGT SNOW  20  18  92 SE8       29.47F FOG     WCI  10
AKRON-CANTON   LGT SNOW  21  17  84 S12       29.41F VSB 3/4 WCI   9
WOOSTER        LGT SNOW  22  19  89 S13       29.40F FOG     WCI  10
MANSFIELD      LGT SNOW  24  22  91 S14       29.35F WCI  12
YOUNGSTOWN     LGT SNOW  20  17  88 SE8       29.45F VSB 1   WCI  10
$$

OHZ042-051>053-060>062-070>072-077>081-140300-
  SOUTHWEST OHIO

CITY           SKY/WX    TMP DP  RH WIND       PRES   REMARKS
CINC-COVINGTON CLOUDY    45  26  47 SW16G25   29.46R
CINC-LUNKEN    CLOUDY    45  23  42 SW14G23   29.47S
HAMILTON       CLOUDY    45  28  51 W24G37    29.46R
DAYTON         CLOUDY    38  31  76 W29G39    29.41R
WRIGHT-PAT AFB CLOUDY    39  19  45 SW15      29.39S
DAYTON GENERAL CLOUDY    41  21  44 SW16G23   29.41R
WILMINGTON     CLOUDY    39  21  48 SW24G33   29.39F
$$

OHZ036-037-039>041-045>050-054>059-063>069-073>076-082>088-140300-
  CENTRAL AND SOUTHEAST OHIO

CITY           SKY/WX    TMP DP  RH WIND       PRES   REMARKS
COLUMBUS       FLURRIES  31  20  63 SE9       29.40F WCI  23
OSU AIRPORT    FLURRIES  32  22  66 S6        29.39F WCI  26
BOLTON FIELD   CLOUDY    33  21  60 S8        29.40F WCI  26
RICKENBACK AFB CLOUDY    32  17  54 S9        29.40F WCI  24
NEWARK         FLURRIES  30  19  63 S6        29.41F WCI  24
MARION         LGT SNOW  27  24  89 S10       29.36F FOG     WCI  17
LANCASTER      CLOUDY    32  16  51 S7        29.42F WCI  26
ZANESVILLE     FLURRIES  28  18  66 SE8       29.44F WCI  20
NEW PHILLY     NOT AVBL
$$




USA.gov is the U.S. government's official web portal to all federal, state and local government web resources and services.